[[{"header":{"parameterUnit":"m.s-1","parameterCategory":2,"la1":30.2992,"la2":30.254,"lo1":-89.0895,"lo2":-89.0443,"dy":0.0025,"dx":0.0025,"nx":19,"ny":19,"refTime":"2026-05-18T21:00:00:Z","depth":"0","parameterNumber":2,"parameterNumberName":"U-component_of_CURRENTS"},"data":[0,0,0,-0.2179,-0.218,-0.2213,-0.2213,-0.2201,-0.2201,0,0,0,0,0,0,0,0,0,0,0,-0.2163,-0.2163,-0.2179,-0.218,-0.2213,-0.2213,-0.2201,-0.2201,0,0,0,0,0,0,0,0,0,0,0,-0.2163,-0.2163,-0.2164,-0.2181,-0.2213,-0.2213,-0.2201,-0.2187,0,0,0,0,0,0,0,0,0,0,-0.216,-0.2146,-0.2163,-0.2164,-0.2181,-0.2213,-0.2213,-0.2186,-0.2187,-0.2174,0,-0.2187,0,-0.22,-0.22,-0.22,0,0,0,-0.2168,-0.2145,-0.2169,-0.2164,-0.2181,-0.2213,-0.2195,-0.2187,-0.2188,-0.2175,-0.2187,-0.2187,-0.2199,-0.2199,-0.2199,-0.226,-0.2261,0,0,-0.2167,-0.2151,-0.2168,-0.217,-0.2199,-0.2194,-0.2196,-0.2188,-0.2183,-0.2187,-0.2187,-0.2199,-0.2199,-0.2199,-0.2259,-0.226,0,0,0,-0.2169,-0.215,-0.2175,-0.217,-0.2184,-0.2195,-0.2198,-0.2183,-0.2196,-0.2187,-0.2199,-0.2199,-0.2199,-0.2259,-0.226,-0.2286,0,0,0,-0.2168,-0.2153,-0.2174,-0.2162,-0.2185,-0.2189,-0.2192,-0.2197,-0.2197,-0.2199,-0.2199,-0.2199,-0.2258,-0.2259,-0.2284,-0.2257,0,0,0,-0.216,-0.2151,-0.2162,-0.2162,-0.2184,-0.219,-0.2202,-0.2197,-0.2204,-0.2199,-0.2199,-0.2257,-0.2259,-0.2281,-0.2254,-0.2205,0,0,0,-0.2134,-0.2176,-0.2161,-0.222,-0.2184,-0.2265,-0.2202,-0.2244,-0.2251,-0.2199,-0.2258,-0.226,-0.2281,-0.2253,-0.2205,-0.2,-0.1985,0,0,-0.2182,-0.2181,-0.2223,-0.2212,-0.2289,-0.2259,-0.2318,-0.2291,-0.2269,-0.2252,-0.2254,-0.2285,-0.2254,-0.2205,-0.2108,-0.2088,0,0,0,-0.2236,-0.2247,-0.2278,-0.2309,-0.2362,-0.2355,-0.2354,-0.2345,-0.2329,-0.2283,-0.2315,-0.2295,-0.2262,-0.214,-0.2126,-0.2039,-0.2268,-0.2268,-0.2268,-0.2217,-0.2266,-0.2312,-0.236,-0.2403,-0.2426,-0.2421,-0.2398,-0.2394,-0.2399,-0.2341,-0.2352,-0.2227,-0.2213,-0.2129,-0.239,-0.239,-0.239,-0.239,-0.223,-0.2233,-0.229,-0.2345,-0.2371,-0.2405,-0.2432,-0.2425,-0.2395,-0.2404,-0.2372,-0.2205,-0.2198,-0.2114,-0.2392,-0.2392,-0.2392,-0.2391,-0.2391,-0.2158,-0.2164,-0.2207,-0.2258,-0.2291,-0.2348,-0.2333,-0.2372,-0.2377,-0.2365,-0.2184,-0.2181,-0.2077,-0.234,-0.234,-0.234,-0.234,-0.2339,-0.2339,-0.2039,-0.209,-0.2087,-0.2162,-0.2174,-0.2208,-0.2265,-0.2248,-0.2187,-0.2166,-0.2163,-0.2063,-0.2335,-0.2302,-0.2335,-0.2335,-0.2336,-0.2336,-0.2337,-0.1919,-0.1944,-0.1936,-0.1947,-0.1999,-0.1967,-0.2062,-0.1971,-0.1964,-0.188,-0.1806,-0.2045,-0.1993,-0.2003,-0.1962,-0.1904,-0.1904,-0.1904,-0.1904,-0.1802,-0.183,-0.178,-0.1773,-0.1794,-0.1841,-0.1687,-0.1639,-0.1574,-0.1507,-0.1586,-0.1567,-0.1588,-0.1514,-0.1535,-0.1486,-0.1309,-0.1309,-0.1308,-0.1694,-0.1705,-0.1628,-0.1665,-0.1693,-0.1669,-0.1475,-0.1296,-0.1228,-0.1286,-0.151,-0.1535,-0.1519,-0.1559,-0.1457,-0.1493,-0.1419,0,0]},{"header":{"parameterUnit":"m.s-1","parameterCategory":2,"la1":30.2992,"la2":30.254,"lo1":-89.0895,"lo2":-89.0443,"dy":0.0025,"dx":0.0025,"nx":19,"ny":19,"refTime":"2026-05-18T21:00:00:Z","depth":"0","parameterNumber":3,"parameterNumberName":"V-component_of_CURRENTS"},"data":[0,0,0,-0.0397,-0.0396,-0.0325,-0.0325,-0.021,-0.0209,0,0,0,0,0,0,0,0,0,0,0,-0.0421,-0.0421,-0.0397,-0.0396,-0.0326,-0.0325,-0.021,-0.0209,0,0,0,0,0,0,0,0,0,0,0,-0.0421,-0.0421,-0.0421,-0.0396,-0.0326,-0.0325,-0.021,-0.0266,0,0,0,0,0,0,0,0,0,0,-0.0336,-0.0371,-0.0421,-0.0421,-0.0396,-0.0326,-0.0325,-0.0269,-0.0262,-0.024,0,-0.0239,0,-0.0228,-0.0202,-0.0202,0,0,0,-0.038,-0.0376,-0.0357,-0.0421,-0.0395,-0.0326,-0.0353,-0.0265,-0.0258,-0.0232,-0.0238,-0.0233,-0.0226,-0.0201,-0.0201,-0.0122,-0.0122,0,0,-0.0384,-0.0403,-0.0362,-0.0353,-0.039,-0.0355,-0.0351,-0.0261,-0.0259,-0.0237,-0.0231,-0.0224,-0.0201,-0.02,-0.0122,-0.0122,0,0,0,-0.0406,-0.0406,-0.0389,-0.0358,-0.035,-0.0354,-0.0348,-0.0262,-0.0257,-0.0229,-0.0223,-0.02,-0.0199,-0.0122,-0.0122,-0.0184,0,0,0,-0.0408,-0.042,-0.0392,-0.0401,-0.0353,-0.031,-0.0352,-0.0263,-0.0253,-0.0223,-0.02,-0.0198,-0.0122,-0.0122,-0.0182,-0.02,0,0,0,-0.0422,-0.0422,-0.0418,-0.0403,-0.038,-0.0311,-0.03,-0.0261,-0.0249,-0.0202,-0.0198,-0.0122,-0.0122,-0.0181,-0.0198,-0.0134,0,0,0,-0.0438,-0.0464,-0.0418,-0.044,-0.0381,-0.0356,-0.0301,-0.0273,-0.0239,-0.02,-0.0122,-0.0122,-0.0181,-0.0196,-0.0134,-0.003,-0.0022,0,0,-0.0486,-0.047,-0.0483,-0.0441,-0.0445,-0.0364,-0.0343,-0.0276,-0.0223,-0.0147,-0.0145,-0.0183,-0.0197,-0.0134,-0.0015,-0.0007,0,0,0,-0.0508,-0.0518,-0.0511,-0.0498,-0.0456,-0.0398,-0.0329,-0.0281,-0.021,-0.0203,-0.016,-0.0166,-0.0125,-0.0061,-0.0055,0.0099,-0.0121,-0.0121,-0.0121,-0.0591,-0.0567,-0.0584,-0.0545,-0.0513,-0.0419,-0.0366,-0.028,-0.0237,-0.0209,-0.0201,-0.0174,-0.0109,-0.0103,0.0053,-0.0187,-0.0187,-0.0187,-0.0187,-0.0669,-0.0679,-0.063,-0.0641,-0.056,-0.0522,-0.039,-0.034,-0.0232,-0.0219,-0.0175,-0.0111,-0.0099,0.0064,-0.0191,-0.019,-0.019,-0.0189,-0.0189,-0.0726,-0.0727,-0.0726,-0.0718,-0.0672,-0.0577,-0.049,-0.0398,-0.0281,-0.025,-0.0103,-0.01,0.0036,-0.0205,-0.0204,-0.0204,-0.0204,-0.0204,-0.0204,-0.0784,-0.0781,-0.0808,-0.0791,-0.0776,-0.0708,-0.0539,-0.0432,-0.0234,-0.0138,-0.0136,0.0079,-0.0178,-0.0186,-0.0201,-0.0202,-0.0202,-0.0202,-0.0202,-0.0848,-0.085,-0.089,-0.0895,-0.0849,-0.0737,-0.0603,-0.0298,-0.0165,-0.0036,0.021,-0.0048,0.0002,-0.0001,-0.0003,0.003,0.003,0.003,0.003,-0.0889,-0.0894,-0.0938,-0.0945,-0.0902,-0.0746,-0.0448,-0.0154,0.0196,0.0379,0.0389,0.0414,0.0398,0.0471,0.0458,0.0466,0.0617,0.0618,0.0619,-0.0919,-0.0931,-0.0959,-0.0964,-0.0917,-0.0704,-0.0348,0.0097,0.055,0.0654,0.0583,0.0558,0.06,0.0562,0.0679,0.0647,0.0661,0,0]}],[{"header":{"parameterUnit":"m.s-1","parameterCategory":2,"la1":30.2992,"la2":30.254,"lo1":-89.0895,"lo2":-89.0443,"dy":0.0025,"dx":0.0025,"nx":19,"ny":19,"refTime":"2026-05-18T21:00:00:Z","depth":"2","parameterNumber":2,"parameterNumberName":"U-component_of_CURRENTS"},"data":[0,0,0,-0.197,-0.1971,-0.2007,-0.2007,-0.1997,-0.1997,0,0,0,0,0,0,0,0,0,0,0,-0.1955,-0.1955,-0.197,-0.1971,-0.2007,-0.2007,-0.1997,-0.1997,0,0,0,0,0,0,0,0,0,0,0,-0.1954,-0.1955,-0.1955,-0.1972,-0.2007,-0.2007,-0.1997,-0.1982,0,0,0,0,0,0,0,0,0,0,-0.1953,-0.1941,-0.1955,-0.1955,-0.1972,-0.2007,-0.2007,-0.1981,-0.1983,-0.1968,0,-0.198,0,-0.1993,-0.1996,-0.1995,0,0,0,-0.1962,-0.1941,-0.1961,-0.1955,-0.1972,-0.2007,-0.1988,-0.1982,-0.1984,-0.1969,-0.198,-0.198,-0.1992,-0.1995,-0.1995,-0.2043,-0.2043,0,0,-0.196,-0.1947,-0.1961,-0.1962,-0.1989,-0.1987,-0.1989,-0.1984,-0.198,-0.198,-0.198,-0.1992,-0.1995,-0.1995,-0.2042,-0.2043,0,0,0,-0.1961,-0.1946,-0.1967,-0.1962,-0.1976,-0.1988,-0.1991,-0.198,-0.1991,-0.198,-0.1992,-0.1995,-0.1995,-0.2041,-0.2042,-0.2072,0,0,0,-0.1959,-0.1947,-0.1966,-0.1957,-0.1976,-0.1984,-0.1987,-0.1991,-0.1991,-0.1992,-0.1995,-0.1995,-0.204,-0.2042,-0.207,-0.2051,0,0,0,-0.1952,-0.1946,-0.1955,-0.1957,-0.1978,-0.1985,-0.1995,-0.1992,-0.1999,-0.1995,-0.1995,-0.204,-0.2041,-0.2068,-0.2048,-0.2001,0,0,0,-0.1929,-0.1962,-0.1955,-0.2,-0.1978,-0.2043,-0.1995,-0.2033,-0.204,-0.1995,-0.2041,-0.2042,-0.2067,-0.2047,-0.2001,-0.18,-0.1785,0,0,-0.1965,-0.1966,-0.1998,-0.1993,-0.2055,-0.2037,-0.2087,-0.2071,-0.2053,-0.2035,-0.2036,-0.2071,-0.2048,-0.2001,-0.1888,-0.187,0,0,0,-0.2007,-0.2015,-0.204,-0.2067,-0.2112,-0.2114,-0.2118,-0.2113,-0.2105,-0.2065,-0.2093,-0.2078,-0.2047,-0.1927,-0.1914,-0.2049,-0.2049,-0.2049,-0.2049,-0.199,-0.2029,-0.2065,-0.2106,-0.2144,-0.2172,-0.2173,-0.2159,-0.2156,-0.2164,-0.2121,-0.2128,-0.2005,-0.1991,-0.2159,-0.2159,-0.2159,-0.2159,-0.216,-0.1995,-0.1994,-0.2048,-0.2093,-0.2124,-0.2157,-0.2187,-0.2187,-0.2164,-0.2175,-0.2143,-0.1988,-0.1978,-0.2162,-0.2162,-0.2161,-0.2161,-0.2161,-0.2161,-0.1932,-0.1935,-0.1976,-0.2021,-0.206,-0.2117,-0.2107,-0.215,-0.2157,-0.2148,-0.197,-0.1967,-0.2093,-0.2125,-0.2124,-0.2124,-0.2124,-0.2124,-0.2123,-0.1828,-0.1873,-0.1871,-0.1941,-0.1956,-0.1994,-0.2053,-0.2038,-0.1982,-0.1959,-0.1957,-0.2114,-0.2116,-0.209,-0.212,-0.212,-0.2121,-0.2121,-0.2121,-0.1714,-0.1741,-0.1732,-0.1745,-0.1792,-0.1743,-0.1854,-0.1768,-0.1765,-0.1684,-0.1833,-0.1841,-0.179,-0.1799,-0.1765,-0.1709,-0.1709,-0.1709,-0.1709,-0.1607,-0.1633,-0.1583,-0.1573,-0.1582,-0.1612,-0.1448,-0.1402,-0.144,-0.1428,-0.1441,-0.1424,-0.1446,-0.1377,-0.1395,-0.1354,-0.119,-0.119,-0.1189,-0.1503,-0.1514,-0.1435,-0.1463,-0.1474,-0.1422,-0.1202,-0.1003,-0.0982,-0.1176,-0.142,-0.166,-0.1671,-0.1692,-0.1614,-0.1633,-0.1578,0,0]},{"header":{"parameterUnit":"m.s-1","parameterCategory":2,"la1":30.2992,"la2":30.254,"lo1":-89.0895,"lo2":-89.0443,"dy":0.0025,"dx":0.0025,"nx":19,"ny":19,"refTime":"2026-05-18T21:00:00:Z","depth":"2","parameterNumber":3,"parameterNumberName":"V-component_of_CURRENTS"},"data":[0,0,0,-0.0407,-0.0406,-0.0345,-0.0345,-0.0241,-0.024,0,0,0,0,0,0,0,0,0,0,0,-0.0426,-0.0426,-0.0407,-0.0406,-0.0346,-0.0345,-0.0241,-0.024,0,0,0,0,0,0,0,0,0,0,0,-0.0426,-0.0426,-0.0426,-0.0406,-0.0346,-0.0345,-0.0241,-0.029,0,0,0,0,0,0,0,0,0,0,-0.035,-0.0381,-0.0426,-0.0426,-0.0405,-0.0346,-0.0345,-0.0292,-0.0287,-0.0266,0,-0.0266,0,-0.0258,-0.0234,-0.0234,0,0,0,-0.039,-0.0386,-0.037,-0.0426,-0.0405,-0.0346,-0.0368,-0.0289,-0.0283,-0.0258,-0.0265,-0.0261,-0.0256,-0.0233,-0.0233,-0.0157,-0.0157,0,0,-0.0393,-0.041,-0.0374,-0.0366,-0.0402,-0.037,-0.0367,-0.0285,-0.0284,-0.0265,-0.0259,-0.0254,-0.0233,-0.0232,-0.0157,-0.0157,0,0,0,-0.0413,-0.0413,-0.0399,-0.037,-0.0365,-0.0369,-0.0365,-0.0287,-0.0283,-0.0258,-0.0253,-0.0232,-0.0231,-0.0157,-0.0157,-0.0218,0,0,0,-0.0415,-0.0426,-0.0401,-0.041,-0.0367,-0.033,-0.0368,-0.0288,-0.0279,-0.0254,-0.0232,-0.023,-0.0157,-0.0157,-0.0216,-0.0234,0,0,0,-0.0427,-0.0427,-0.0424,-0.0411,-0.0392,-0.0332,-0.0322,-0.0286,-0.0277,-0.0234,-0.023,-0.0157,-0.0157,-0.0215,-0.0232,-0.0182,0,0,0,-0.044,-0.0465,-0.0425,-0.0446,-0.0393,-0.0371,-0.0322,-0.0298,-0.0268,-0.0232,-0.0157,-0.0157,-0.0215,-0.0231,-0.0182,-0.0107,-0.0102,0,0,-0.0485,-0.0471,-0.0483,-0.0446,-0.0452,-0.0378,-0.0359,-0.03,-0.025,-0.018,-0.0178,-0.0217,-0.0232,-0.0182,-0.0086,-0.0082,0,0,0,-0.0506,-0.0518,-0.0511,-0.0502,-0.0463,-0.0412,-0.0348,-0.0303,-0.0237,-0.0232,-0.0192,-0.0199,-0.0166,-0.0119,-0.0116,-0.0155,-0.0155,-0.0155,-0.0155,-0.0587,-0.0564,-0.0583,-0.0548,-0.0519,-0.0432,-0.0384,-0.0303,-0.0262,-0.0236,-0.0231,-0.0211,-0.0164,-0.016,-0.0214,-0.0215,-0.0215,-0.0215,-0.0215,-0.0665,-0.0678,-0.0633,-0.0646,-0.0571,-0.0536,-0.041,-0.0362,-0.0262,-0.0246,-0.021,-0.0165,-0.0159,-0.0219,-0.0219,-0.0218,-0.0218,-0.0217,-0.0217,-0.0725,-0.0728,-0.0729,-0.0726,-0.0686,-0.0596,-0.0519,-0.0426,-0.0314,-0.0285,-0.0168,-0.0166,-0.0231,-0.0249,-0.0249,-0.0249,-0.0249,-0.0248,-0.0248,-0.0788,-0.0785,-0.0816,-0.0803,-0.0794,-0.0735,-0.0575,-0.0479,-0.03,-0.0206,-0.0205,-0.0221,-0.022,-0.023,-0.0246,-0.0247,-0.0247,-0.0247,-0.0247,-0.0859,-0.086,-0.0906,-0.0915,-0.0884,-0.0816,-0.0667,-0.0397,-0.027,-0.0156,-0.0135,-0.0138,-0.0095,-0.0096,-0.0101,-0.0083,-0.0083,-0.0083,-0.0083,-0.0905,-0.091,-0.0966,-0.0984,-0.096,-0.0849,-0.0635,-0.0362,-0.0129,-0.0042,-0.0044,-0.0048,-0.0055,-0.0009,-0.0013,-0.0016,0.0024,0.0024,0.0023,-0.0942,-0.0955,-0.0997,-0.1013,-0.0989,-0.0858,-0.0637,-0.0309,-0.0029,0.0022,-0.0081,-0.0065,-0.0077,-0.0085,-0.0019,-0.0023,-0.003,0,0]}],[{"header":{"parameterUnit":"m.s-1","parameterCategory":2,"la1":30.2992,"la2":30.254,"lo1":-89.0895,"lo2":-89.0443,"dy":0.0025,"dx":0.0025,"nx":19,"ny":19,"refTime":"2026-05-18T21:00:00:Z","depth":"4","parameterNumber":2,"parameterNumberName":"U-component_of_CURRENTS"},"data":[0,0,0,-0.1372,-0.1374,-0.1469,-0.147,-0.1516,-0.1516,0,0,0,0,0,0,0,0,0,0,0,-0.1344,-0.1345,-0.1372,-0.1375,-0.1469,-0.147,-0.1516,-0.1516,0,0,0,0,0,0,0,0,0,0,0,-0.1344,-0.1345,-0.1346,-0.1375,-0.1469,-0.147,-0.1516,-0.1464,0,0,0,0,0,0,0,0,0,0,-0.1381,-0.1367,-0.1345,-0.1346,-0.1375,-0.1469,-0.147,-0.1462,-0.1467,-0.1451,0,-0.1473,0,-0.1491,-0.1518,-0.1518,0,0,0,-0.1377,-0.1363,-0.1386,-0.1346,-0.1376,-0.1469,-0.1427,-0.1466,-0.1471,-0.1457,-0.1474,-0.1476,-0.1492,-0.1518,-0.1518,-0.1544,-0.1544,0,0,-0.1372,-0.1362,-0.1382,-0.1389,-0.1408,-0.1424,-0.143,-0.147,-0.1478,-0.1474,-0.1477,-0.1492,-0.1518,-0.1518,-0.1544,-0.1544,0,0,0,-0.1355,-0.1358,-0.1382,-0.1387,-0.1408,-0.1427,-0.1434,-0.1477,-0.1484,-0.1478,-0.1493,-0.1518,-0.1518,-0.1544,-0.1544,-0.1584,0,0,0,-0.1352,-0.1348,-0.1379,-0.1374,-0.1408,-0.1454,-0.144,-0.1482,-0.1487,-0.1493,-0.1518,-0.1518,-0.1544,-0.1544,-0.1582,-0.1594,0,0,0,-0.1339,-0.1347,-0.136,-0.1373,-0.1413,-0.1454,-0.1465,-0.1484,-0.1495,-0.1518,-0.1518,-0.1544,-0.1544,-0.1581,-0.1592,-0.1559,0,0,0,-0.1321,-0.1344,-0.136,-0.1393,-0.1412,-0.1463,-0.1465,-0.1512,-0.1535,-0.1518,-0.1544,-0.1544,-0.158,-0.1591,-0.1558,-0.1335,0,0,0,-0.1337,-0.1346,-0.1366,-0.1382,-0.143,-0.145,-0.1499,-0.1534,-0.1531,-0.1525,-0.1527,-0.1583,-0.1592,-0.1558,-0.136,0,0,0,0,-0.1361,-0.1373,-0.1392,-0.1428,-0.1466,-0.1507,-0.1539,-0.1545,-0.1571,-0.1546,-0.1579,-0.1584,-0.1561,-0.143,-0.1546,-0.1546,-0.1546,-0.1546,-0.1546,-0.135,-0.138,-0.1412,-0.1454,-0.1493,-0.1548,-0.1576,-0.1587,-0.1586,-0.1602,-0.1614,-0.1613,-0.1478,-0.1613,-0.1613,-0.1613,-0.1614,-0.1614,-0.1614,-0.1346,-0.1349,-0.1414,-0.1457,-0.1515,-0.1561,-0.1608,-0.1625,-0.1633,-0.1639,-0.1614,-0.1479,-0.1618,-0.1617,-0.1616,-0.1616,-0.1616,-0.1615,-0.1615,-0.13,-0.1303,-0.1358,-0.1422,-0.1497,-0.157,-0.1584,-0.1646,-0.1656,-0.1663,-0.1481,-0.162,-0.1616,-0.1642,-0.1642,-0.1642,-0.1642,-0.1642,-0.1642,-0.1211,-0.1264,-0.1288,-0.1378,-0.142,-0.1487,-0.1574,-0.1562,-0.1606,-0.1491,-0.1664,-0.1621,-0.162,-0.1616,-0.1641,-0.1641,-0.1641,-0.1641,-0.1641,-0.1106,-0.1149,-0.1167,-0.1207,-0.1287,-0.1317,-0.1443,-0.1389,-0.1349,-0.1277,-0.1374,-0.1388,-0.1341,-0.1346,-0.1331,-0.1271,-0.1268,-0.1265,0,-0.1016,-0.1045,-0.1041,-0.1056,-0.1067,-0.119,-0.1095,-0.1121,-0.1157,-0.1118,-0.1338,-0.145,-0.1458,-0.1409,-0.1409,-0.1391,0,0,0,-0.0928,-0.0947,-0.0901,-0.0945,-0.0949,-0.0961,-0.1056,-0.0996,-0.1182,-0.1075,-0.1195,-0.1213,-0.1469,-0.1637,-0.1596,-0.1595,-0.1585,0,0]},{"header":{"parameterUnit":"m.s-1","parameterCategory":2,"la1":30.2992,"la2":30.254,"lo1":-89.0895,"lo2":-89.0443,"dy":0.0025,"dx":0.0025,"nx":19,"ny":19,"refTime":"2026-05-18T21:00:00:Z","depth":"4","parameterNumber":3,"parameterNumberName":"V-component_of_CURRENTS"},"data":[0,0,0,-0.0257,-0.0257,-0.0237,-0.0237,-0.0172,-0.0171,0,0,0,0,0,0,0,0,0,0,0,-0.0263,-0.0263,-0.0257,-0.0257,-0.0237,-0.0237,-0.0172,-0.0171,0,0,0,0,0,0,0,0,0,0,0,-0.0263,-0.0263,-0.0263,-0.0257,-0.0238,-0.0237,-0.0172,-0.0194,0,0,0,0,0,0,0,0,0,0,-0.0217,-0.0236,-0.0263,-0.0263,-0.0257,-0.0238,-0.0237,-0.0195,-0.0193,-0.0174,0,-0.0181,0,-0.018,-0.0167,-0.0167,0,0,0,-0.0244,-0.0238,-0.0232,-0.0263,-0.0257,-0.0238,-0.0243,-0.0194,-0.0191,-0.017,-0.018,-0.0178,-0.0179,-0.0167,-0.0167,-0.0101,-0.01,0,0,-0.0245,-0.0255,-0.0235,-0.0231,-0.0264,-0.0243,-0.0242,-0.0192,-0.0193,-0.0179,-0.0176,-0.0178,-0.0167,-0.0166,-0.0101,-0.0101,0,0,0,-0.0257,-0.0256,-0.0252,-0.0233,-0.0236,-0.0243,-0.0242,-0.0195,-0.0195,-0.0176,-0.0177,-0.0166,-0.0166,-0.0101,-0.0101,-0.0154,0,0,0,-0.0257,-0.0264,-0.0253,-0.0258,-0.0238,-0.0222,-0.0246,-0.0198,-0.0192,-0.0178,-0.0166,-0.0165,-0.0102,-0.0101,-0.0153,-0.0183,0,0,0,-0.0262,-0.0265,-0.0266,-0.0259,-0.0257,-0.0223,-0.0219,-0.0197,-0.0194,-0.0167,-0.0165,-0.0102,-0.0101,-0.0152,-0.0181,-0.0155,0,0,0,-0.0267,-0.0288,-0.0267,-0.0286,-0.0257,-0.0246,-0.0219,-0.0207,-0.0188,-0.0166,-0.0102,-0.0101,-0.0152,-0.018,-0.0155,-0.0182,0,0,0,-0.0299,-0.0292,-0.0303,-0.0283,-0.0295,-0.0247,-0.0238,-0.0205,-0.0167,-0.0113,-0.0112,-0.0153,-0.0181,-0.0155,-0.0142,0,0,0,0,-0.0316,-0.0329,-0.0326,-0.0328,-0.0304,-0.0279,-0.0237,-0.0203,-0.0157,-0.0155,-0.0125,-0.014,-0.0123,-0.0135,-0.0098,-0.0098,-0.0098,-0.0098,-0.0098,-0.0379,-0.0365,-0.0387,-0.0369,-0.0353,-0.0296,-0.0264,-0.0205,-0.017,-0.0149,-0.0162,-0.0152,-0.0166,-0.0133,-0.0133,-0.0133,-0.0133,-0.0134,-0.0134,-0.0445,-0.0461,-0.0438,-0.0459,-0.0414,-0.0395,-0.0298,-0.026,-0.0188,-0.0168,-0.0148,-0.0165,-0.0138,-0.0137,-0.0137,-0.0136,-0.0136,-0.0135,-0.0135,-0.0496,-0.0501,-0.0516,-0.0537,-0.0527,-0.0465,-0.0421,-0.0342,-0.0245,-0.0227,-0.0198,-0.0169,-0.0187,-0.0205,-0.0205,-0.0205,-0.0205,-0.0205,-0.0205,-0.0543,-0.0554,-0.06,-0.0614,-0.0628,-0.0601,-0.0494,-0.0426,-0.0319,-0.0254,-0.0234,-0.0175,-0.0173,-0.0189,-0.0206,-0.0206,-0.0206,-0.0206,-0.0206,-0.0599,-0.0612,-0.0677,-0.0709,-0.0727,-0.0694,-0.0608,-0.0444,-0.0367,-0.0284,-0.0246,-0.0244,-0.0219,-0.0215,-0.0232,-0.0263,-0.0263,-0.0264,0,-0.0635,-0.0646,-0.0737,-0.0787,-0.0796,-0.0739,-0.0629,-0.0519,-0.0377,-0.0381,-0.0367,-0.0332,-0.0327,-0.0308,-0.0304,-0.0329,0,0,0,-0.0668,-0.0692,-0.076,-0.0812,-0.0824,-0.0683,-0.059,-0.053,-0.0412,-0.0322,-0.0274,-0.0271,-0.027,-0.0207,-0.0163,-0.0161,-0.0183,0,0]}]]